RH
95 97 74 47 52 53 50 37 30 21 16 11 4 3 2 3 4 20 54 66 79 74 89 99 52 86 96 99 57 31 29 26 25 26 26 24 24 28 39 53 60 65 68 67 58 51 49 43 45 46 45 46 53 41
97 81 80 82 65 53 44 40 36 25 18 13 5 3 3 2 6 26 61 76 85 74 88 99 98 83 93 94 99 57 28 26 25 25 26 29 30 30 25 23 27 47 50 52 56 65 67 60 52 50 45 42 39 36
88 96 92 94 58 49 40 36 30 26 20 16 8 3 4 3 9 29 68 82 88 88 100 100 100 100 98 100 100 96 65 90 82 93 73 85 78 63 56 63 47 24 26 38 43 44 50 66 70 62 56 52 47 44
97 94 95 64 62 48 34 27 22 22 21 17 9 3 3 3 14 48 73 85 87 97 100 100 100 100 100 100 100 100 100 100 100 100 100 99 100 96 95 94 89 91 47 29 23 29 37 40 44 58 66 62 58 53
97 96 74 69 61 43 33 23 20 20 24 19 11 4 3 4 40 61 78 89 85 93 98 100 100 100 99 100 100 100 100 100 100 100 100 100 98 95 88 86 70 86 94 95 51 26 20 21 30 35 37 42 52 55
97 88 87 84 55 43 31 24 22 12 10 8 5 3 3 7 67 78 88 90 90 99 98 100 100 100 100 100 100 100 96 89 77 50 45 35 27 33 38 51 58 82 85 90 91 71 44 26 20 23 31 34 32 36
92 93 94 85 59 40 28 27 24 13 7 5 4 3 3 6 52 75 89 100 100 99 99 96 100 100 100 99 88 70 52 40 29 29 22 19 15 18 11 7 12 20 52 78 85 83 85 58 33 23 23 30 34 30
93 98 99 84 57 36 30 27 19 17 16 7 4 4 4 8 21 71 92 100 100 98 100 93 94 88 89 79 76 60 50 36 31 36 31 36 43 25 10 6 8 17 19 44 81 100 98 89 58 34 24 31 35 35
96 99 99 81 50 36 32 26 18 15 15 11 6 5 6 5 18 38 80 100 100 100 100 98 99 100 84 78 80 72 71 53 34 33 41 36 64 39 12 3 6 95 100 83 77 97 100 100 73 38 28 28 32 33
99 99 97 81 51 40 32 29 22 18 16 14 11 12 7 7 9 38 66 90 100 100 100 98 100 100 100 99 93 75 70 58 42 27 45 59 94 90 72 80 100 99 91 100 100 100 100 100 87 39 34 33 32 29
100 97 94 85 58 44 34 31 25 20 19 19 17 16 12 9 8 12 48 96 99 99 100 100 100 100 98 99 94 85 75 70 63 43 51 78 74 100 93 47 60 98 98 85 90 95 100 100 93 46 41 37 36 32
100 97 92 84 64 50 42 38 32 28 30 24 22 19 15 13 9 9 10 16 55 85 96 99 99 100 100 100 100 90 90 94 73 76 76 91 100 100 100 97 78 73 95 95 100 100 100 100 93 64 44 39 34 28
100 98 95 92 71 54 50 47 43 43 41 35 27 22 18 16 15 11 10 10 13 14 36 75 92 99 99 100 100 98 87 86 94 100 100 100 100 100 100 100 100 98 79 100 100 100 100 92 70 56 46 40 37 40
100 95 94 95 77 68 62 59 63 60 54 48 40 30 25 26 24 21 16 15 15 15 13 17 42 79 91 97 100 97 99 98 99 100 100 100 100 100 100 100 100 100 97 94 100 100 100 98 84 70 62 60 59 57
100 92 92 92 83 78 77 74 80 82 64 56 49 40 37 35 35 31 27 26 24 20 18 11 22 41 73 95 100 100 100 100 100 98 100 97 100 100 100 100 100 100 100 100 100 100 100 100 100 90 86 82 78 74
100 98 86 92 90 90 89 88 90 97 98 70 62 56 56 54 46 43 39 38 31 30 22 16 11 29 37 83 100 100 100 100 100 100 99 98 100 100 100 100 100 100 100 100 100 100 100 100 99 98 92 82 76 71
100 100 92 94 93 89 89 95 94 97 99 94 76 75 79 74 62 53 52 46 40 38 35 30 14 10 32 39 91 100 100 100 100 100 100 100 99 100 100 100 100 100 100 100 100 100 100 100 97 90 96 96 98 99
100 100 98 92 92 85 82 93 95 93 86 89 91 94 99 84 72 63 59 62 53 46 44 42 29 22 16 36 46 82 100 100 100 100 100 96 88 92 100 100 100 100 100 100 99 99 100 100 96 100 100 100 100 100
100 100 100 100 100 96 94 95 100 93 91 90 93 94 95 85 83 76 76 65 57 53 62 52 53 32 30 24 56 45 60 88 98 100 100 100 95 97 100 100 100 100 100 98 93 90 100 96 97 96 94 100 100 100
100 100 100 98 97 98 92 90 100 99 92 99 97 96 85 80 76 86 81 73 72 71 75 79 59 46 43 28 29 43 33 37 46 87 100 95 100 99 100 100 100 100 100 100 100 100 100 100 100 100 100 100 96 87
100 100 100 96 93 96 89 90 93 95 97 99 91 74 60 61 68 79 84 85 80 88 88 71 64 62 56 38 25 26 48 33 31 27 33 92 96 100 100 100 100 100 100 100 100 100 100 100 100 100 98 99 96 87
100 100 100 96 93 88 87 90 95 96 100 92 80 70 60 55 63 75 84 90 82 78 72 66 74 83 76 51 25 23 74 70 41 33 27 20 46 94 99 100 100 100 100 100 94 91 98 100 100 100 100 100 98 89
100 100 96 94 90 78 71 80 92 99 100 87 77 70 69 66 68 79 76 71 63 48 60 90 100 100 94 50 26 60 100 100 82 48 31 23 19 29 82 89 94 100 98 99 100 100 96 95 97 99 100 100 100 94
100 100 100 84 72 75 85 94 99 100 99 92 77 65 72 76 73 62 51 38 23 25 97 100 100 96 88 55 32 71 100 100 94 62 38 25 20 18 26 66 79 83 96 100 99 100 100 100 100 100 98 100 99 97
100 100 88 78 75 90 100 100 96 91 75 71 69 67 46 33 25 20 18 18 18 26 47 75 84 98 100 53 36 65 98 100 100 69 38 28 37 49 51 60 75 82 86 97 98 100 100 98 99 100 100 99 100 100
100 94 84 84 89 93 92 75 65 56 43 32 25 25 24 27 24 24 34 43 52 90 100 96 100 100 90 55 53 66 75 96 100 81 43 42 96 100 100 100 98 94 100 100 100 100 99 95 94 94 96 98 100 100
95 86 75 64 61 51 41 34 30 28 27 28 30 37 42 29 29 53 86 95 100 100 100 100 100 98 80 57 44 42 43 43 68 87 64 55 99 100 100 100 100 100 100 100 100 100 99 96 92 92 94 95 88 72
59 48 37 35 33 33 32 33 36 42 58 66 61 61 53 59 57 71 85 92 100 100 97 96 100 100 99 95 77 49 43 39 35 46 69 70 79 96 100 100 100 100 100 100 100 100 100 100 98 95 91 84 72 75
38 36 36 33 32 37 47 62 66 90 94 86 72 50 43 49 58 71 84 92 92 81 80 90 98 100 100 100 92 66 47 36 31 32 36 58 61 90 83 99 100 100 100 100 100 100 100 100 100 100 100 100 100 100
18 31 41 50 54 61 72 89 66 77 68 50 43 42 40 44 62 61 56 54 50 51 56 62 76 89 92 91 80 66 54 42 27 26 32 42 54 66 94 95 96 98 100 100 100 100 100 100 99 100 100 100 100 100
39 70 90 91 82 78 72 63 51 46 41 42 44 40 37 41 31 47 54 58 63 54 44 41 46 48 49 47 41 39 34 26 24 22 25 38 46 57 94 100 100 100 100 100 100 100 100 100 100 100 100 97 92 91
78 87 83 78 69 54 48 49 42 42 38 30 27 30 37 45 46 57 76 68 50 41 37 32 28 26 26 26 30 30 26 24 19 18 18 37 43 51 78 100 100 100 100 100 100 100 99 96 95 94 95 93 89 85
82 67 52 43 39 44 48 43 36 34 32 26 30 48 66 73 80 80 46 42 41 40 33 26 23 20 17 17 19 19 17 17 14 13 20 34 38 51 79 95 99 100 100 100 100 100 100 99 92 77 59 45 39 34
Wind_Speed
46 33 24 25 27 32 37 41 42 46 52 53 53 59 69 60 41 29 25 23 17 14 14 17 22 27 30 32 36 31 30 28 26 25 23 21 19 20 18 18 15 16 15 15 16 12 12 13 13 12 11 12 12 14
37 23 22 22 25 30 33 39 43 47 53 53 52 57 68 52 34 27 25 23 17 17 15 15 19 21 23 29 36 32 28 28 29 27 27 24 23 23 22 22 21 22 21 16 15 16 17 16 15 15 14 14 13 13
33 27 20 21 21 25 30 36 39 43 51 56 57 55 64 47 30 25 23 21 19 17 12 11 14 14 15 22 30 36 33 33 32 31 29 30 29 28 26 23 28 27 26 25 23 17 17 18 19 20 19 18 17 15
28 23 18 16 19 22 28 33 36 40 47 54 58 56 60 47 27 25 22 20 19 15 10 8 11 11 11 17 23 29 31 32 31 30 30 30 31 32 31 29 30 29 31 26 24 25 27 23 18 17 19 20 21 22
23 17 14 13 17 21 24 29 35 43 48 53 60 54 52 36 20 23 21 19 17 14 8 4 8 10 9 10 15 19 22 23 23 24 25 22 29 33 36 39 36 35 31 30 27 31 25 24 24 24 21 20 20 21
16 14 11 12 15 19 22 28 35 40 43 50 52 49 45 25 15 21 17 15 15 10 4 4 5 8 9 10 10 7 2 4 7 13 17 25 33 39 39 40 42 41 41 37 36 35 30 28 22 23 26 24 23 23
14 12 10 10 14 17 21 27 33 37 40 39 42 43 40 23 13 17 15 8 9 6 2 3 5 5 6 6 4 3 5 8 11 17 23 26 32 38 49 51 51 50 47 45 41 39 34 33 27 24 22 25 25 25
15 11 8 8 12 15 20 27 32 34 38 43 41 42 46 29 16 13 13 8 6 5 5 3 3 3 5 6 6 6 7 11 14 12 20 26 41 55 45 43 59 59 54 48 41 41 39 35 31 27 23 22 24 26
14 12 6 7 10 13 18 23 29 36 39 39 45 48 52 42 23 14 16 8 8 8 8 10 10 9 7 8 8 7 8 10 15 14 20 29 36 43 31 20 35 39 27 34 35 38 39 34 33 28 24 23 22 22
16 13 7 7 10 11 13 17 23 31 35 36 42 47 51 56 35 20 14 14 9 10 10 12 13 14 12 10 11 9 8 10 13 14 18 23 24 25 35 25 25 22 19 27 31 32 34 30 32 29 27 24 22 22
18 14 9 10 11 10 10 13 19 26 31 34 38 40 43 42 36 27 17 13 12 14 14 13 14 14 14 14 13 13 10 11 13 12 16 20 20 16 4 6 3 7 18 18 24 26 27 30 32 31 29 28 28 27
19 15 12 12 13 12 11 11 15 19 23 29 34 36 39 41 43 39 46 31 19 17 18 17 16 16 15 13 13 12 8 8 8 10 13 16 12 12 7 7 8 10 13 15 19 22 25 27 28 27 28 28 28 27
21 17 14 14 13 14 12 14 16 18 22 27 30 32 36 38 39 38 37 36 49 32 25 23 22 20 16 14 12 13 13 9 8 10 13 15 12 9 4 8 9 12 10 15 14 17 18 19 21 23 24 25 25 26
22 19 17 16 15 15 14 15 15 17 19 22 27 28 31 33 35 33 34 34 39 39 37 25 24 21 23 21 16 15 15 12 11 10 10 12 9 9 7 3 4 8 11 14 15 15 15 16 17 19 21 22 22 21
26 21 20 18 18 17 14 15 15 17 18 19 23 24 24 29 30 32 32 31 34 40 36 32 22 21 21 16 18 15 12 11 13 13 14 13 9 11 12 9 8 8 9 12 12 12 13 15 15 17 17 16 16 18
28 24 21 20 20 19 17 18 18 19 19 20 21 23 22 25 29 32 33 32 32 35 36 34 28 21 19 16 10 12 17 19 21 20 20 18 16 7 7 11 10 10 12 13 14 14 14 14 13 12 14 14 14 14
29 28 25 23 22 20 20 21 23 24 23 23 23 24 24 25 30 33 34 33 33 33 33 34 29 23 24 19 19 20 24 27 26 24 26 23 20 19 14 9 10 13 12 12 12 12 15 12 13 13 15 14 13 14
29 31 28 27 25 23 24 25 27 27 27 29 29 30 31 32 34 35 36 34 34 34 34 35 32 30 29 29 24 25 30 28 32 34 35 32 28 24 22 19 16 14 15 18 20 18 26 23 18 16 17 15 17 14
30 32 29 28 30 29 29 29 30 31 30 31 30 31 33 36 38 39 39 37 35 37 35 36 41 32 32 32 31 28 27 31 31 35 37 36 35 29 25 23 20 21 19 21 23 22 22 25 25 23 20 20 20 18
30 34 33 30 31 33 34 34 34 35 34 35 35 36 39 41 43 45 45 42 41 42 40 42 41 38 35 31 34 31 27 28 28 31 30 36 37 34 33 30 25 24 24 24 24 24 24 24 25 25 25 24 23 23
35 37 38 35 34 35 37 38 39 40 39 38 41 43 44 46 48 49 47 45 45 43 44 44 40 36 34 35 35 34 33 29 28 27 27 31 32 36 38 34 32 30 28 28 29 30 31 32 33 32 31 30 29 28
38 37 37 37 37 39 39 41 44 45 44 45 46 49 50 51 52 52 50 48 46 48 48 45 40 36 37 38 36 31 30 31 29 28 27 27 31 33 31 37 41 40 37 35 34 33 33 33 34 33 33 32 32 31
42 37 40 42 43 45 45 46 47 47 48 49 52 54 56 57 57 55 57 54 53 48 46 43 36 32 34 33 31 29 28 28 29 28 27 27 29 32 34 32 32 36 40 44 41 40 39 37 36 36 36 37 36 35
39 41 43 46 47 47 47 45 46 50 52 54 57 59 61 65 65 67 67 58 47 42 41 40 36 32 34 29 27 28 27 25 25 28 28 27 28 30 33 35 33 32 35 37 39 43 44 42 42 43 41 41 40 40
43 43 48 49 48 45 46 48 51 55 59 62 65 66 66 63 64 64 58 44 41 37 37 42 39 34 31 26 26 26 25 24 22 24 27 27 26 27 29 32 32 32 34 35 37 38 39 42 45 47 48 46 44 43
45 46 48 47 46 48 51 55 58 63 65 66 63 60 60 59 59 57 39 33 28 25 23 24 27 29 27 24 24 25 23 22 22 21 23 24 23 23 25 27 28 30 31 33 34 35 36 37 38 40 41 42 42 42
46 47 48 48 51 54 57 59 60 61 61 57 55 51 49 50 47 34 29 26 24 22 22 25 29 31 29 26 24 26 26 24 22 22 20 21 23 22 23 24 25 27 30 32 34 35 35 35 36 35 34 35 36 36
44 46 48 50 53 56 58 58 55 49 42 41 40 37 40 40 35 28 27 27 25 23 23 25 26 29 31 32 29 27 27 28 26 24 22 21 24 23 22 22 24 25 26 27 30 32 34 35 35 35 36 36 37 37
49 51 52 53 52 48 43 36 32 31 33 35 37 35 33 31 29 27 27 27 25 26 28 29 31 35 34 35 36 34 33 32 33 30 26 24 23 26 24 22 24 24 25 26 27 28 30 31 32 34 34 35 36 36
49 42 38 33 31 26 23 30 33 32 34 38 38 37 34 34 33 33 35 35 36 35 35 37 35 38 38 39 36 36 37 40 40 37 31 27 25 24 26 25 25 26 26 27 28 29 30 31 32 32 33 35 36 37
31 27 28 26 24 25 28 31 34 35 33 35 37 42 43 40 36 36 36 33 39 42 48 50 49 48 45 43 44 43 41 42 41 41 37 29 25 24 24 25 27 28 28 28 29 29 30 32 33 35 36 37 39 40
22 21 22 23 24 25 28 31 30 30 33 38 41 46 47 44 41 38 41 45 49 54 56 54 50 47 48 50 50 48 45 41 39 40 38 27 24 24 23 25 27 28 29 29 29 31 32 33 35 37 39 41 42 44
19 19 21 22 23 25 29 34 36 42 46 47 41 39 40 44 48 48 42 32 26 25 23 27 30 29 28 31 35 36 36 34 33 32 29 26 25 25 25 25 27 28 28 29 30 32 34 35 37 39 42 44 47 49
Wind_Direction
265 275 282 291 305 312 313 315 321 325 329 338 335 326 327 333 333 326 331 333 317 300 302 263 250 240 238 234 232 239 243 247 254 257 257 258 255 253 248 244 250 253 252 249 248 249 239 241 240 242 238 239 238 244
270 268 273 296 306 313 320 324 329 327 332 338 336 326 331 336 331 322 326 333 324 310 306 266 249 236 242 234 229 235 240 245 250 254 260 260 260 255 254 257 248 247 250 249 255 251 252 248 247 242 242 240 243 245
254 267 279 295 313 323 327 331 335 335 338 339 343 328 327 333 328 325 333 341 329 319 296 268 241 226 243 234 231 233 238 241 249 245 249 255 257 256 253 248 252 253 249 246 246 249 252 253 249 247 248 247 245 249
258 267 284 302 320 322 331 334 342 343 342 341 345 330 325 333 329 329 336 347 340 332 303 261 239 232 253 239 232 239 248 248 254 256 259 262 263 260 259 256 252 252 250 253 251 250 246 249 250 255 251 250 252 254
254 271 285 313 320 324 330 340 346 352 350 346 344 333 332 336 331 330 337 344 350 348 341 279 242 245 252 242 237 239 242 243 251 251 253 268 268 270 263 258 253 254 251 248 244 246 251 251 246 247 249 250 249 248
253 264 289 310 319 327 334 342 356 3 0 356 351 334 341 340 334 338 337 337 344 338 334 109 151 166 177 170 186 178 84 343 331 311 295 291 285 275 264 261 259 251 248 238 240 241 241 245 248 246 246 247 247 249
249 261 284 310 321 327 334 353 3 4 13 9 355 339 354 342 326 338 337 326 321 349 322 94 73 80 90 106 146 211 251 261 283 286 287 305 317 315 277 269 254 248 242 239 237 239 236 239 239 246 247 247 249 250
241 260 276 309 317 328 341 5 8 5 3 13 4 355 1 353 324 336 344 310 294 308 306 257 296 266 213 218 243 254 264 279 282 309 324 325 331 329 308 259 233 234 234 232 230 233 232 233 235 239 247 248 249 252
237 247 257 291 309 329 356 12 13 12 9 14 15 9 10 5 352 325 329 297 286 290 284 288 284 282 261 250 269 288 284 293 299 315 327 339 338 348 332 270 224 185 192 218 224 228 228 228 230 230 237 243 247 252
231 229 237 273 286 322 355 9 12 11 9 12 13 15 13 11 3 352 326 324 264 272 283 277 272 270 272 263 264 263 276 287 297 317 329 342 1 18 50 69 123 176 194 192 204 223 227 223 222 226 232 238 243 250
229 220 228 255 277 306 338 6 15 13 8 7 9 9 13 10 14 11 346 318 292 271 271 271 268 270 272 273 275 276 292 292 283 311 342 350 346 358 66 64 224 127 160 201 216 223 222 224 218 224 232 240 249 256
223 215 228 249 270 293 317 346 5 4 2 358 1 3 4 6 15 20 26 8 321 305 284 274 269 269 272 271 272 272 296 299 313 332 346 354 353 337 337 216 187 227 229 229 232 230 224 220 222 230 238 246 255 261
218 216 227 247 267 286 304 327 345 349 350 353 356 355 359 6 10 11 8 4 13 349 307 296 281 271 266 271 275 277 280 297 313 332 334 333 328 317 327 227 249 219 189 202 200 231 222 222 226 235 243 252 258 263
221 220 227 240 260 279 299 314 324 329 333 342 348 350 353 358 1 359 2 2 7 3 355 309 307 295 272 264 269 276 282 287 297 320 320 322 301 296 297 288 229 215 204 211 218 226 225 226 233 241 249 257 262 268
226 224 229 238 256 267 286 299 309 313 313 324 334 338 345 346 348 347 348 350 354 357 357 346 301 308 296 285 255 260 277 281 255 263 275 279 304 291 274 271 258 237 217 217 226 227 232 234 237 241 245 252 259 263
229 229 235 239 253 263 277 290 299 303 299 305 313 319 324 329 333 335 337 338 341 346 350 348 336 291 302 288 267 239 245 251 242 248 257 264 262 265 289 263 260 246 238 238 240 236 232 239 247 252 261 264 263 262
238 237 239 241 250 261 272 280 288 291 290 287 292 296 306 314 321 324 325 324 328 332 336 337 330 314 282 284 265 237 240 242 247 245 247 244 251 258 255 252 254 247 241 239 230 220 228 243 261 264 265 264 275 284
247 242 245 248 252 261 268 275 283 288 289 287 283 288 295 302 309 313 317 314 317 321 322 328 316 312 292 271 272 269 250 238 241 247 253 250 252 256 258 253 244 241 231 220 215 217 239 233 247 253 258 259 255 251
251 250 251 253 256 260 268 274 280 284 283 282 282 286 291 297 301 307 311 308 307 309 310 311 317 305 296 282 270 269 271 265 249 245 247 255 255 255 255 250 246 240 233 226 219 225 228 238 249 247 252 255 258 261
265 262 257 259 260 260 265 272 278 281 280 281 282 283 288 293 299 302 305 303 301 304 305 306 310 304 290 284 274 261 263 266 269 259 258 250 242 251 251 252 247 241 241 240 234 235 239 241 242 246 252 257 261 264
265 271 265 261 266 266 268 273 277 279 280 283 285 289 294 296 298 298 298 297 298 301 300 302 297 289 279 279 285 271 260 262 265 270 267 262 255 244 240 245 249 248 242 240 241 243 243 243 247 254 259 263 264 265
272 276 268 265 265 267 271 274 277 279 282 288 291 293 294 295 295 294 294 292 296 299 296 290 285 279 276 279 285 279 266 262 265 266 270 264 258 256 251 247 245 244 245 245 245 246 248 250 253 256 260 260 263 267
271 267 264 267 269 273 276 276 279 285 290 292 292 293 294 294 293 294 293 296 300 294 284 279 273 269 273 277 281 276 265 262 266 270 272 269 260 253 253 254 250 248 248 247 249 250 251 253 255 257 259 261 263 267
260 261 265 268 272 276 278 281 287 289 290 292 292 294 294 294 296 297 298 302 296 285 271 265 262 264 270 266 271 272 273 266 268 270 274 277 268 258 250 251 254 252 249 249 250 250 253 255 255 256 258 261 264 266
258 261 264 270 275 280 286 287 288 289 291 292 293 294 297 299 296 298 302 300 286 278 262 259 259 262 256 261 268 272 271 265 263 271 275 281 279 268 257 251 252 254 252 249 250 253 254 255 257 259 260 261 263 265
261 265 270 278 283 286 286 287 288 290 291 293 294 295 295 294 296 299 303 290 280 266 259 252 248 243 245 256 262 267 271 272 260 267 279 280 274 267 261 256 254 253 253 252 252 253 255 256 258 260 261 262 263 264
266 272 278 282 284 285 287 288 289 290 291 292 292 290 290 296 302 307 297 292 279 270 260 256 250 244 245 252 257 262 267 271 271 262 269 277 271 265 260 256 256 258 258 258 255 253 255 259 261 261 261 261 260 258
277 282 283 285 284 285 285 285 285 286 286 285 289 294 300 304 311 302 290 285 280 276 275 270 264 259 254 256 255 259 266 270 268 267 263 273 277 267 263 259 257 258 259 260 260 259 259 260 261 262 262 262 263 262
281 281 281 281 282 279 277 277 274 269 275 288 296 302 310 311 304 288 285 288 283 275 269 260 257 260 255 253 253 255 260 265 270 267 263 260 267 276 266 261 260 260 262 263 261 261 261 262 263 264 264 264 264 265
278 276 273 271 268 266 263 265 268 273 283 296 301 300 299 297 292 283 281 281 281 278 271 267 262 260 258 256 252 253 256 262 267 261 255 249 254 265 267 267 265 264 265 267 267 267 267 267 266 265 266 266 266 267
266 257 254 261 269 271 275 284 290 293 294 295 297 299 299 298 293 280 277 277 273 269 267 265 260 258 261 262 262 260 260 265 260 255 251 241 245 255 262 265 268 269 269 270 270 270 269 268 268 268 269 269 269 270
251 258 264 274 276 278 282 284 287 289 294 298 297 293 296 294 290 289 290 285 270 261 263 269 271 272 266 261 259 259 261 260 251 247 245 237 247 255 261 264 268 271 272 273 273 273 272 272 271 272 272 272 272 272
262 281 284 283 279 281 289 295 295 292 292 300 304 298 293 289 288 291 294 299 296 294 284 269 265 266 263 257 254 253 257 252 243 236 228 232 248 258 264 266 270 271 273 275 276 277 276 276 276 276 277 277 277 278